Time,TemperatureF,DewpointF,PressureIn,WindDirection,WindDirectionDegrees,WindSpeedMPH,WindSpeedGustMPH,Humidity,HourlyPrecipIn,Conditions,Clouds,dailyrainin,SolarRadiationWatts/m^2,SoftwareType,DateUTC
2013-03-22 00:02:00,65.0,56.0,-100.00,SSE,158,13.0,27.0,72,0.00,,,0.00,0.000000,,2013-03-22 05:02:00,
2013-03-22 00:32:00,65.0,57.0,-100.00,SSE,165,16.0,24.0,76,0.00,,,0.00,0.000000,,2013-03-22 05:32:00,
2013-03-22 00:42:00,65.0,57.0,-100.00,SSE,165,16.0,24.0,76,0.00,,,0.00,0.000000,,2013-03-22 05:42:00,
2013-03-22 00:52:00,65.0,57.0,-100.00,SSE,165,16.0,24.0,76,0.00,,,0.00,0.000000,,2013-03-22 05:52:00,
2013-03-22 01:02:00,65.0,57.0,-100.00,SSE,165,16.0,24.0,76,0.00,,,0.00,0.000000,,2013-03-22 06:02:00,
2013-03-22 01:32:00,65.0,58.0,-100.00,SSE,161,15.0,23.0,78,0.00,,,0.00,0.000000,,2013-03-22 06:32:00,
2013-03-22 01:43:00,65.0,58.0,-100.00,SSE,161,15.0,23.0,78,0.00,,,0.00,0.000000,,2013-03-22 06:43:00,
2013-03-22 01:52:00,65.0,58.0,-100.00,SSE,161,15.0,23.0,78,0.00,,,0.00,0.000000,,2013-03-22 06:52:00,
2013-03-22 02:02:00,65.0,58.0,-100.00,SSE,161,15.0,23.0,78,0.00,,,0.00,0.000000,,2013-03-22 07:02:00,
2013-03-22 02:32:00,66.0,59.0,-100.00,South,172,13.0,24.0,78,0.00,,,0.00,0.000000,,2013-03-22 07:32:00,
2013-03-22 02:42:00,66.0,59.0,-100.00,South,172,13.0,24.0,78,0.00,,,0.00,0.000000,,2013-03-22 07:42:00,
2013-03-22 02:52:00,66.0,59.0,-100.00,South,172,13.0,24.0,78,0.00,,,0.00,0.000000,,2013-03-22 07:52:00,
2013-03-22 03:03:00,66.0,59.0,-100.00,South,172,13.0,24.0,78,0.00,,,0.00,0.000000,,2013-03-22 08:03:00,
2013-03-22 03:32:00,66.0,59.0,-100.00,South,172,12.0,24.0,79,0.00,,,0.00,0.000000,,2013-03-22 08:32:00,
2013-03-22 03:42:00,66.0,59.0,-100.00,South,172,12.0,24.0,79,0.00,,,0.00,0.000000,,2013-03-22 08:42:00,
2013-03-22 03:52:00,66.0,59.0,-100.00,South,172,12.0,24.0,79,0.00,,,0.00,0.000000,,2013-03-22 08:52:00,
2013-03-22 04:02:00,66.0,59.0,-100.00,South,172,12.0,24.0,79,0.00,,,0.00,0.000000,,2013-03-22 09:02:00,
2013-03-22 04:33:00,66.0,59.0,-100.00,South,173,11.0,18.0,79,0.00,,,0.00,0.000000,,2013-03-22 09:33:00,
2013-03-22 04:42:00,66.0,59.0,-100.00,South,173,11.0,18.0,79,0.00,,,0.00,0.000000,,2013-03-22 09:42:00,
2013-03-22 04:53:00,66.0,59.0,-100.00,South,173,11.0,18.0,79,0.00,,,0.00,0.000000,,2013-03-22 09:53:00,
2013-03-22 05:03:00,66.0,59.0,-100.00,South,173,11.0,18.0,79,0.00,,,0.00,0.000000,,2013-03-22 10:03:00,
2013-03-22 05:33:00,65.0,58.0,-100.00,South,176,10.0,20.0,79,0.00,,,0.00,0.000000,,2013-03-22 10:33:00,
2013-03-22 05:42:00,65.0,58.0,-100.00,South,176,10.0,20.0,79,0.00,,,0.00,0.000000,,2013-03-22 10:42:00,
2013-03-22 05:52:00,65.0,58.0,-100.00,South,176,10.0,20.0,79,0.00,,,0.00,0.000000,,2013-03-22 10:52:00,
2013-03-22 06:03:00,65.0,58.0,-100.00,South,176,10.0,20.0,79,0.00,,,0.00,0.000000,,2013-03-22 11:03:00,
2013-03-22 06:33:00,65.0,59.0,-100.00,SSW,192,7.0,17.0,81,0.00,,,0.00,0.000000,,2013-03-22 11:33:00,
2013-03-22 06:42:00,65.0,59.0,-100.00,SSW,192,7.0,17.0,81,0.00,,,0.00,0.000000,,2013-03-22 11:42:00,
2013-03-22 06:52:00,65.0,59.0,-100.00,SSW,192,7.0,17.0,81,0.00,,,0.00,0.000000,,2013-03-22 11:52:00,
2013-03-22 07:02:00,65.0,59.0,-100.00,SSW,192,7.0,17.0,81,0.00,,,0.00,0.000000,,2013-03-22 12:02:00,
2013-03-22 07:32:00,64.0,59.0,-100.00,SSW,202,5.0,13.0,84,0.00,,,0.00,0.000000,,2013-03-22 12:32:00,
2013-03-22 07:42:00,64.0,59.0,-100.00,SSW,202,5.0,13.0,84,0.00,,,0.00,0.000000,,2013-03-22 12:42:00,
2013-03-22 07:52:00,64.0,59.0,-100.00,SSW,202,5.0,13.0,84,0.00,,,0.00,0.000000,,2013-03-22 12:52:00,
2013-03-22 08:02:00,64.0,59.0,-100.00,SSW,202,5.0,13.0,84,0.00,,,0.00,0.000000,,2013-03-22 13:02:00,
2013-03-22 08:32:00,64.0,60.0,-100.00,SSW,196,5.0,11.0,86,0.00,,,0.00,17.000000,,2013-03-22 13:32:00,
2013-03-22 08:42:00,64.0,60.0,-100.00,SSW,196,5.0,11.0,86,0.00,,,0.00,17.000000,,2013-03-22 13:42:00,
2013-03-22 08:52:00,64.0,60.0,-100.00,SSW,196,5.0,11.0,86,0.00,,,0.00,17.000000,,2013-03-22 13:52:00,
2013-03-22 09:02:00,64.0,60.0,-100.00,SSW,196,5.0,11.0,86,0.00,,,0.00,17.000000,,2013-03-22 14:02:00,
2013-03-22 09:32:00,53.0,42.0,-100.00,NNE,23,10.0,18.0,67,0.00,,,0.00,38.000000,,2013-03-22 14:32:00,
2013-03-22 09:43:00,53.0,42.0,-100.00,NNE,23,10.0,18.0,67,0.00,,,0.00,38.000000,,2013-03-22 14:43:00,
2013-03-22 09:52:00,53.0,42.0,-100.00,NNE,23,10.0,18.0,67,0.00,,,0.00,38.000000,,2013-03-22 14:52:00,
2013-03-22 10:03:00,53.0,42.0,-100.00,NNE,23,10.0,18.0,67,0.00,,,0.00,38.000000,,2013-03-22 15:03:00,
2013-03-22 10:33:00,52.0,44.0,-100.00,NNE,12,8.0,17.0,74,0.00,,,0.00,102.000000,,2013-03-22 15:33:00,
2013-03-22 10:43:00,52.0,44.0,-100.00,NNE,12,8.0,17.0,74,0.00,,,0.00,102.000000,,2013-03-22 15:43:00,
2013-03-22 10:53:00,52.0,44.0,-100.00,NNE,12,8.0,17.0,74,0.00,,,0.00,102.000000,,2013-03-22 15:53:00,
2013-03-22 11:03:00,52.0,44.0,-100.00,NNE,12,8.0,17.0,74,0.00,,,0.00,102.000000,,2013-03-22 16:03:00,
2013-03-22 11:32:00,54.0,46.0,-100.00,North,359,8.0,15.0,74,0.00,,,0.00,371.000000,,2013-03-22 16:32:00,
2013-03-22 11:42:00,54.0,46.0,-100.00,North,359,8.0,15.0,74,0.00,,,0.00,371.000000,,2013-03-22 16:42:00,
2013-03-22 11:52:00,54.0,46.0,-100.00,North,359,8.0,15.0,74,0.00,,,0.00,371.000000,,2013-03-22 16:52:00,
2013-03-22 12:03:00,54.0,46.0,-100.00,North,359,8.0,15.0,74,0.00,,,0.00,371.000000,,2013-03-22 17:03:00,
2013-03-22 12:33:00,53.0,45.0,-100.00,NNE,17,9.0,16.0,73,0.00,,,0.00,426.000000,,2013-03-22 17:33:00,
2013-03-22 12:42:00,53.0,45.0,-100.00,NNE,17,9.0,16.0,73,0.00,,,0.00,426.000000,,2013-03-22 17:42:00,
2013-03-22 12:53:00,53.0,45.0,-100.00,NNE,17,9.0,16.0,73,0.00,,,0.00,426.000000,,2013-03-22 17:53:00,
2013-03-22 13:02:00,53.0,45.0,-100.00,NNE,17,9.0,16.0,73,0.00,,,0.00,426.000000,,2013-03-22 18:02:00,
2013-03-22 13:33:00,50.0,42.0,-100.00,NNW,333,8.0,15.0,75,0.00,,,0.00,289.000000,,2013-03-22 18:33:00,
2013-03-22 13:42:00,50.0,42.0,-100.00,NNW,333,8.0,15.0,75,0.00,,,0.00,289.000000,,2013-03-22 18:42:00,
2013-03-22 13:52:00,50.0,42.0,-100.00,NNW,333,8.0,15.0,75,0.00,,,0.00,289.000000,,2013-03-22 18:52:00,
2013-03-22 14:02:00,50.0,42.0,-100.00,NNW,333,8.0,15.0,75,0.00,,,0.00,289.000000,,2013-03-22 19:02:00,
2013-03-22 14:33:00,49.0,44.0,-100.00,NNW,347,9.0,14.0,82,0.00,,,0.00,142.000000,,2013-03-22 19:33:00,
2013-03-22 14:43:00,49.0,44.0,-100.00,NNW,347,9.0,14.0,82,0.00,,,0.00,142.000000,,2013-03-22 19:43:00,
2013-03-22 14:52:00,49.0,44.0,-100.00,NNW,347,9.0,14.0,82,0.00,,,0.00,142.000000,,2013-03-22 19:52:00,
2013-03-22 15:02:00,49.0,44.0,-100.00,NNW,347,9.0,14.0,82,0.00,,,0.00,142.000000,,2013-03-22 20:02:00,
2013-03-22 15:32:00,49.0,44.0,-100.00,North,349,10.0,15.0,82,0.00,,,0.00,162.000000,,2013-03-22 20:32:00,
2013-03-22 15:43:00,49.0,44.0,-100.00,North,349,10.0,15.0,82,0.00,,,0.00,162.000000,,2013-03-22 20:43:00,
2013-03-22 15:52:00,49.0,44.0,-100.00,North,349,10.0,15.0,82,0.00,,,0.00,162.000000,,2013-03-22 20:52:00,
2013-03-22 16:03:00,49.0,44.0,-100.00,North,349,10.0,15.0,82,0.00,,,0.00,162.000000,,2013-03-22 21:03:00,
2013-03-22 16:33:00,49.0,44.0,-100.00,North,349,9.0,16.0,83,0.00,,,0.00,149.000000,,2013-03-22 21:33:00,
2013-03-22 16:43:00,49.0,44.0,-100.00,North,349,9.0,16.0,83,0.00,,,0.00,149.000000,,2013-03-22 21:43:00,
2013-03-22 16:53:00,49.0,44.0,-100.00,North,349,9.0,16.0,83,0.00,,,0.00,149.000000,,2013-03-22 21:53:00,
2013-03-22 17:03:00,49.0,44.0,-100.00,North,349,9.0,16.0,83,0.00,,,0.00,149.000000,,2013-03-22 22:03:00,
2013-03-22 17:32:00,49.0,43.0,-100.00,North,351,7.0,17.0,80,0.00,,,0.00,105.000000,,2013-03-22 22:32:00,
2013-03-22 17:43:00,49.0,43.0,-100.00,North,351,7.0,17.0,80,0.00,,,0.00,105.000000,,2013-03-22 22:43:00,
2013-03-22 17:53:00,49.0,43.0,-100.00,North,351,7.0,17.0,80,0.00,,,0.00,105.000000,,2013-03-22 22:53:00,
2013-03-22 18:02:00,49.0,43.0,-100.00,North,351,7.0,17.0,80,0.00,,,0.00,105.000000,,2013-03-22 23:02:00,
2013-03-22 18:32:00,48.0,43.0,-100.00,NNW,348,7.0,13.0,82,0.00,,,0.00,52.000000,,2013-03-22 23:32:00,
2013-03-22 18:42:00,48.0,43.0,-100.00,NNW,348,7.0,13.0,82,0.00,,,0.00,52.000000,,2013-03-22 23:42:00,
2013-03-22 18:52:00,48.0,43.0,-100.00,NNW,348,7.0,13.0,82,0.00,,,0.00,52.000000,,2013-03-22 23:52:00,
2013-03-22 19:02:00,48.0,43.0,-100.00,NNW,348,7.0,13.0,82,0.00,,,0.00,52.000000,,2013-03-23 00:02:00,
2013-03-22 20:32:00,47.0,43.0,-100.00,North,3,6.0,13.0,87,-99.99,,,0.00,4.000000,,2013-03-23 01:32:00,
2013-03-22 20:43:00,47.0,43.0,-100.00,North,3,6.0,13.0,87,-99.99,,,0.00,4.000000,,2013-03-23 01:43:00,
2013-03-22 20:52:00,47.0,43.0,-100.00,North,3,6.0,13.0,87,-99.99,,,0.00,4.000000,,2013-03-23 01:52:00,
2013-03-22 21:02:00,47.0,43.0,-100.00,North,3,6.0,13.0,87,-99.99,,,0.00,4.000000,,2013-03-23 02:02:00,
2013-03-22 21:32:00,47.0,44.0,-100.00,NE,36,5.0,9.0,88,0.00,,,0.00,0.000000,,2013-03-23 02:32:00,
2013-03-22 21:42:00,47.0,44.0,-100.00,NE,36,5.0,9.0,88,0.00,,,0.00,0.000000,,2013-03-23 02:42:00,
2013-03-22 21:52:00,47.0,44.0,-100.00,NE,36,5.0,9.0,88,0.00,,,0.00,0.000000,,2013-03-23 02:52:00,
2013-03-22 22:02:00,47.0,44.0,-100.00,NE,36,5.0,9.0,88,0.00,,,0.00,0.000000,,2013-03-23 03:02:00,
2013-03-22 22:33:00,47.0,43.0,-100.00,North,1,6.0,13.0,87,0.00,,,0.00,0.000000,,2013-03-23 03:33:00,
2013-03-22 22:43:00,47.0,43.0,-100.00,North,1,6.0,13.0,87,0.00,,,0.00,0.000000,,2013-03-23 03:43:00,
2013-03-22 22:53:00,47.0,43.0,-100.00,North,1,6.0,13.0,87,0.00,,,0.00,0.000000,,2013-03-23 03:53:00,
2013-03-22 23:02:00,47.0,43.0,-100.00,North,1,6.0,13.0,87,0.00,,,0.00,0.000000,,2013-03-23 04:02:00,
2013-03-22 23:33:00,47.0,44.0,-100.00,NNE,30,6.0,11.0,89,0.00,,,0.00,0.000000,,2013-03-23 04:33:00,
2013-03-22 23:43:00,47.0,44.0,-100.00,NNE,30,6.0,11.0,89,0.00,,,0.00,0.000000,,2013-03-23 04:43:00,
2013-03-22 23:53:00,47.0,44.0,-100.00,NNE,30,6.0,11.0,89,0.00,,,0.00,0.000000,,2013-03-23 04:53:00,